[[{"header":{"parameterUnit":"m.s-1","parameterCategory":1,"la1":30.2991,"la2":30.254,"lo1":-89.0895,"lo2":-89.0444,"dy":0.0017,"dx":0.0017,"nx":28,"ny":28,"refTime":"2024-04-04T03:00:00:Z","depth":0,"parameterNumber":2,"parameterNumberName":"U-component_of_WINDS"},"data":[0,0,0,0,0,0,0,0,0,0,0,0,0,0,0,0,0,0,0,0,0,0,0,0,0,0,0,0,0,0,0,0,0,0,0,0,0,0,0,0,0,0,0,0,0,0,0,0,0,0,0,0,0,0,0,0,0,0,5.8317,5.8318,0,5.8405,5.8406,5.8407,5.837,5.8368,5.8366,5.8364,5.8455,5.846,5.8464,0,0,0,0,0,0,0,0,0,0,0,0,0,5.8119,5.8123,5.8317,5.8318,5.8319,5.8405,5.8406,5.8408,5.837,5.8368,5.8365,5.8363,5.8454,5.8459,5.8464,0,0,0,0,0,0,0,0,0,0,0,0,0,5.8206,5.8124,5.8317,5.8311,5.8311,5.8405,5.8406,5.8408,5.8371,5.8368,5.8365,5.8362,5.8452,5.8459,5.8465,5.857,0,0,5.8485,5.8488,0,0,0,0,0,0,0,0,5.8201,5.8213,5.8311,5.8312,5.8312,5.8373,5.837,5.8462,5.8372,5.8348,5.8364,5.836,5.8431,5.8439,5.8463,5.8574,5.8578,5.8486,5.849,5.8493,5.8495,0,0,0,0,0,0,0,5.8195,5.8209,5.8352,5.8312,5.8313,5.8305,5.8314,5.8387,5.8406,5.835,5.8348,5.8359,5.8431,5.8456,5.8464,5.858,5.8486,5.8492,5.8496,5.8498,5.8786,5.8789,0,0,0,0,0,0,5.8189,5.8205,5.8349,5.8355,5.8248,5.8311,5.8321,5.8357,5.8405,5.841,5.8361,5.8356,5.8446,5.8457,5.8468,5.8596,5.8493,5.8499,5.8503,5.8782,5.8786,5.879,0,0,0,0,0,0,5.8185,5.8202,5.8346,5.8279,5.8297,5.8318,5.8359,5.836,5.8386,5.8414,5.8417,5.8384,5.8444,5.8458,5.8546,5.8599,5.8502,5.8508,5.8778,5.8783,5.8788,5.8852,0,0,0,0,0,0,5.8179,5.8201,5.824,5.828,5.83,5.8421,5.8362,5.8364,5.8397,5.8392,5.8436,5.844,5.8443,5.8536,5.8552,5.8606,5.8513,5.8773,5.878,5.8787,5.8846,5.8859,5.8871,0,0,0,0,0,5.8172,5.8254,5.8242,5.826,5.835,5.8424,5.8436,5.8437,5.8402,5.8442,5.8461,5.8439,5.859,5.8545,5.8563,5.862,5.877,5.8778,5.8786,5.884,5.8857,5.8871,0,0,0,0,0,0,5.8219,5.8259,5.8246,5.8343,5.8381,5.8418,5.8469,5.8454,5.8503,5.8496,5.8496,5.8506,5.8597,5.8617,5.8566,5.8726,5.8675,5.8687,5.8709,5.8725,5.8738,5.8732,5.8519,0,0,0,0,0,5.8241,5.8298,5.8329,5.8412,5.8432,5.8447,5.848,5.8477,5.8516,5.8532,5.8557,5.8596,5.8653,5.869,5.8743,5.8848,5.8859,5.8896,5.8909,5.8919,5.893,5.899,5.9008,5.8817,5.8817,5.8817,0,0,5.8286,5.8315,5.8351,5.8422,5.8451,5.8511,5.8461,5.8525,5.8571,5.8542,5.8627,5.8646,5.869,5.8788,5.8832,5.8807,5.8985,5.893,5.8938,5.8943,5.9001,5.9019,5.9035,5.8823,5.8822,5.8821,0,0,5.84,5.8426,5.8499,5.853,5.8574,5.8584,5.8602,5.8642,5.8654,5.8739,5.872,5.8774,5.8871,5.8904,5.8933,5.9063,5.9046,5.908,5.9147,5.9206,5.9221,5.9234,5.9283,5.93,5.9091,5.9091,5.9091,0,5.845,5.854,5.8539,5.8607,5.864,5.8617,5.8692,5.8722,5.8782,5.8806,5.8777,5.89,5.8928,5.9034,5.9066,5.909,5.9112,5.9076,5.9218,5.9232,5.9244,5.9291,5.9309,5.9095,5.9094,5.9094,5.9094,0,5.8601,5.8664,5.8718,5.8777,5.8816,5.8887,5.8899,5.8938,5.8934,5.8947,5.9036,5.9069,5.913,5.9154,5.915,5.9261,5.9245,5.9218,5.9167,5.9267,5.9311,5.9328,5.9101,5.9099,5.9098,5.9097,0,0,5.8746,5.8806,5.8826,5.8854,5.8903,5.8951,5.9022,5.9082,5.9118,5.916,5.9222,5.9305,5.9281,5.9315,5.9314,5.9365,5.9469,5.9331,5.9333,5.9358,5.9597,5.9619,5.964,5.9457,5.9461,5.9463,5.9594,0,5.8866,5.899,5.8993,5.9107,5.9167,5.9147,5.9209,5.9247,5.9262,5.9316,5.9332,5.9393,5.9355,5.9376,5.9425,5.9446,5.9517,5.9436,5.9516,5.9519,5.9508,5.9662,5.9685,5.9807,5.9611,5.9614,5.9616,0,5.9021,5.907,5.9191,5.9234,5.9259,5.9315,5.9371,5.9422,5.9465,5.9473,5.9512,5.9504,5.9578,5.9524,5.9629,5.9573,5.9606,5.9622,5.9627,5.9635,5.9575,5.9677,5.9845,5.9865,5.9643,5.964,5.9639,0,5.9119,5.9214,5.93,5.9324,5.9375,5.9415,5.9439,5.9478,5.9515,5.9565,5.959,5.9647,5.9679,5.9725,5.9734,5.9693,5.9839,5.9785,5.985,5.985,5.9882,5.988,6.006,5.99,5.99,5.99,5.9899,0,5.9253,5.9328,5.9345,5.9397,5.9482,5.9485,5.9569,5.9589,5.9625,5.9683,5.9669,5.9723,5.9731,5.9788,5.9795,5.9882,5.9896,5.9906,5.9907,5.9908,5.9907,5.9931,5.9924,5.9905,5.9903,5.9903,5.9902,0,5.9376,5.939,5.9482,5.9524,5.9536,5.9597,5.9633,5.9685,5.9699,5.9772,5.979,5.9812,5.9879,5.9892,5.997,5.9976,6.008,6.0072,6.0066,6.0065,6.013,6.0125,6.0333,6.0362,6.0181,6.0183,6.0184,0,5.9462,5.952,5.9568,5.9606,5.9631,5.9692,5.973,5.9735,5.9776,5.9831,5.9876,5.9941,5.9994,6.0102,6.0126,6.0187,6.0181,6.025,6.019,6.0191,6.0185,6.0183,6.019,6.0262,6.0264,6.0266,6.0267,0,5.9614,5.9618,5.9673,5.9732,5.9778,5.9824,5.9867,5.9899,5.9911,5.9957,6.0025,6.0066,6.0147,6.0213,6.0274,6.0299,6.0287,6.0285,6.0304,6.0307,6.0302,6.0308,6.0099,6.0281,6.0279,6.0278,6.0278,6.0277,5.9723,5.9774,5.9817,5.988,5.9914,5.9956,6.0007,6.0028,6.0085,6.0151,6.0151,6.0227,6.0271,6.0351,6.0381,6.0441,6.0419,6.0445,6.0452,6.0459,6.0467,6.0291,6.0451,6.0451,6.0451,6.045,6.045,0,5.9876,5.9903,5.9961,6.0023,6.0073,6.0055,6.0104,6.0147,6.0214,6.0255,6.0308,6.0388,6.0452,6.0482,6.0546,6.0589,6.0584,6.0605,6.0603,6.061,6.0481,6.046,6.0608,6.0608,6.0608,6.0608,6.0608,6.0608,5.9962,6.005,6.0059,6.0164,6.0191,6.0264,6.0294,6.0333,6.0367,6.0457,6.051,6.0529,6.0567,6.0634,6.0693,6.0701,6.0726,6.0751,6.0755,6.0635,6.0619,6.0603,6.0584,6.0755,6.0756,6.088,6.0881,6.0882]},{"header":{"parameterUnit":"m.s-1","parameterCategory":1,"la1":30.2991,"la2":30.254,"lo1":-89.0895,"lo2":-89.0444,"dy":0.0017,"dx":0.0017,"nx":28,"ny":28,"refTime":"2024-04-04T03:00:00:Z","depth":0,"parameterNumber":3,"parameterNumberName":"V-component_of_WINDS"},"data":[0,0,0,0,0,0,0,0,0,0,0,0,0,0,0,0,0,0,0,0,0,0,0,0,0,0,0,0,0,0,0,0,0,0,0,0,0,0,0,0,0,0,0,0,0,0,0,0,0,0,0,0,0,0,0,0,0,0,-0.2332,-0.233,0,-0.2201,-0.2199,-0.2198,-0.2215,-0.2217,-0.2219,-0.2221,-0.2079,-0.2073,-0.2067,0,0,0,0,0,0,0,0,0,0,0,0,0,-0.259,-0.2585,-0.2332,-0.233,-0.2329,-0.2201,-0.2199,-0.2197,-0.2214,-0.2217,-0.222,-0.2222,-0.2081,-0.2074,-0.2067,0,0,0,0,0,0,0,0,0,0,0,0,0,-0.247,-0.2583,-0.2332,-0.2322,-0.232,-0.2201,-0.2199,-0.2197,-0.2214,-0.2217,-0.222,-0.2223,-0.2083,-0.2075,-0.2066,-0.1947,0,0,-0.2039,-0.2036,0,0,0,0,0,0,0,0,-0.2477,-0.246,-0.2325,-0.2322,-0.232,-0.2228,-0.2238,-0.2113,-0.2213,-0.2254,-0.2221,-0.2225,-0.2125,-0.2113,-0.2081,-0.194,-0.1934,-0.2039,-0.2033,-0.2029,-0.2027,0,0,0,0,0,0,0,-0.2485,-0.2466,-0.228,-0.2323,-0.232,-0.2322,-0.2308,-0.2214,-0.2172,-0.225,-0.2251,-0.2236,-0.2124,-0.209,-0.2078,-0.1932,-0.2039,-0.2031,-0.2026,-0.2022,-0.1687,-0.1684,0,0,0,0,0,0,-0.2497,-0.2473,-0.2284,-0.2276,-0.2408,-0.2314,-0.2299,-0.2254,-0.2174,-0.2165,-0.2233,-0.2237,-0.2103,-0.2088,-0.2073,-0.1929,-0.203,-0.2021,-0.2016,-0.1691,-0.1687,-0.1683,0,0,0,0,0,0,-0.2502,-0.248,-0.2289,-0.2375,-0.2351,-0.2306,-0.2255,-0.2249,-0.2215,-0.2161,-0.2153,-0.2206,-0.2105,-0.2085,-0.1979,-0.1924,-0.2017,-0.201,-0.1695,-0.169,-0.1685,-0.164,0,0,0,0,0,0,-0.251,-0.2482,-0.2438,-0.2374,-0.2346,-0.2199,-0.2252,-0.2245,-0.2201,-0.2205,-0.2133,-0.2124,-0.2106,-0.1992,-0.197,-0.1914,-0.2003,-0.17,-0.1693,-0.1686,-0.1646,-0.1633,-0.1623,0,0,0,0,0,-0.2519,-0.2428,-0.2435,-0.2412,-0.229,-0.2196,-0.218,-0.2163,-0.2196,-0.2151,-0.2116,-0.2127,-0.1934,-0.1981,-0.1957,-0.1897,-0.1703,-0.1695,-0.1687,-0.1651,-0.1636,-0.1623,0,0,0,0,0,0,-0.2484,-0.242,-0.2427,-0.2313,-0.2261,-0.2199,-0.2141,-0.2147,-0.2082,-0.2088,-0.2067,-0.205,-0.1943,-0.1909,-0.1963,-0.1778,-0.1823,-0.1809,-0.1804,-0.1789,-0.1778,-0.1788,-0.1995,0,0,0,0,0,-0.2464,-0.2395,-0.2341,-0.2246,-0.222,-0.2185,-0.2143,-0.2135,-0.2078,-0.2055,-0.2013,-0.1955,-0.1882,-0.1833,-0.1763,-0.1641,-0.1625,-0.1588,-0.1577,-0.1567,-0.1556,-0.1489,-0.1472,-0.1655,-0.1656,-0.1656,0,0,-0.242,-0.2376,-0.2333,-0.2238,-0.2196,-0.2124,-0.2166,-0.2087,-0.2032,-0.2042,-0.194,-0.1907,-0.1841,-0.1727,-0.1674,-0.1695,-0.1502,-0.1557,-0.155,-0.1543,-0.1479,-0.1461,-0.1446,-0.165,-0.1651,-0.1652,0,0,-0.2303,-0.2263,-0.2181,-0.2138,-0.2075,-0.2053,-0.2033,-0.1971,-0.1951,-0.1848,-0.1855,-0.1788,-0.1662,-0.1615,-0.1575,-0.1442,-0.1449,-0.1419,-0.1358,-0.1293,-0.1279,-0.1266,-0.1218,-0.1201,-0.1408,-0.1407,-0.1407,0,-0.2256,-0.2149,-0.2136,-0.2057,-0.2015,-0.2024,-0.1938,-0.1897,-0.1813,-0.1782,-0.1808,-0.1651,-0.1607,-0.1482,-0.145,-0.1417,-0.1392,-0.1427,-0.1283,-0.1269,-0.1257,-0.1211,-0.1193,-0.1404,-0.1405,-0.1405,-0.1405,0,-0.2094,-0.202,-0.196,-0.1882,-0.1833,-0.175,-0.1723,-0.1675,-0.1671,-0.1645,-0.1541,-0.1489,-0.1408,-0.1378,-0.1372,-0.1252,-0.1267,-0.1288,-0.1333,-0.1237,-0.1193,-0.1176,-0.14,-0.1401,-0.1402,-0.1403,0,0,-0.195,-0.1868,-0.1846,-0.1812,-0.1743,-0.1685,-0.1602,-0.1527,-0.1485,-0.1427,-0.1357,-0.1251,-0.127,-0.1224,-0.1213,-0.1156,-0.1054,-0.1183,-0.1181,-0.1161,-0.0919,-0.0904,-0.0884,-0.1059,-0.1056,-0.1053,-0.0924,0,-0.1827,-0.1686,-0.1672,-0.1544,-0.1475,-0.1483,-0.1411,-0.136,-0.1334,-0.127,-0.124,-0.1166,-0.1196,-0.1169,-0.1113,-0.1079,-0.1005,-0.1088,-0.0992,-0.0988,-0.1008,-0.0861,-0.0845,-0.0726,-0.0907,-0.0904,-0.0902,0,-0.1664,-0.1605,-0.1471,-0.1414,-0.1384,-0.132,-0.125,-0.1189,-0.1131,-0.1116,-0.1066,-0.1063,-0.0976,-0.1026,-0.0905,-0.0962,-0.0922,-0.0899,-0.0894,-0.0884,-0.0939,-0.0847,-0.0688,-0.067,-0.0875,-0.0878,-0.0879,0,-0.1573,-0.1459,-0.1365,-0.1335,-0.1265,-0.122,-0.1189,-0.1134,-0.109,-0.1027,-0.0998,-0.0926,-0.0885,-0.0828,-0.0805,-0.0843,-0.0686,-0.0733,-0.067,-0.067,-0.0636,-0.0638,-0.0468,-0.061,-0.0611,-0.0611,-0.0611,0,-0.1437,-0.1355,-0.1324,-0.1265,-0.1173,-0.1157,-0.1065,-0.1035,-0.0987,-0.0922,-0.0923,-0.0861,-0.0834,-0.0767,-0.0748,-0.0652,-0.0633,-0.0618,-0.0614,-0.0618,-0.062,-0.0591,-0.0598,-0.0606,-0.0607,-0.0608,-0.0609,0,-0.132,-0.1296,-0.1193,-0.1137,-0.1121,-0.1055,-0.1006,-0.0948,-0.0924,-0.0841,-0.0821,-0.0781,-0.0703,-0.0674,-0.0578,-0.0565,-0.0453,-0.0456,-0.0474,-0.0473,-0.0411,-0.0418,-0.0216,-0.0189,-0.0349,-0.0348,-0.0347,0,-0.1235,-0.1172,-0.111,-0.1068,-0.1036,-0.0967,-0.0923,-0.0904,-0.0857,-0.0788,-0.0738,-0.0661,-0.0599,-0.0473,-0.0434,-0.036,-0.0361,-0.0295,-0.035,-0.0356,-0.036,-0.0364,-0.0358,-0.0285,-0.0284,-0.0282,-0.0281,0,-0.1086,-0.1078,-0.1015,-0.0948,-0.0896,-0.0841,-0.0788,-0.0753,-0.0727,-0.0674,-0.0595,-0.0547,-0.045,-0.0373,-0.0298,-0.0263,-0.0267,-0.0265,-0.0246,-0.025,-0.0263,-0.0255,-0.0446,-0.0269,-0.027,-0.0271,-0.0272,-0.0272,-0.0982,-0.0927,-0.0876,-0.0806,-0.0765,-0.0716,-0.066,-0.0629,-0.0564,-0.0487,-0.0479,-0.0394,-0.0338,-0.0238,-0.02,-0.0132,-0.0149,-0.0122,-0.0116,-0.0109,-0.0105,-0.0274,-0.0118,-0.0118,-0.0118,-0.0119,-0.0119,0,-0.0834,-0.0802,-0.0738,-0.0665,-0.061,-0.0622,-0.0564,-0.0516,-0.0443,-0.0391,-0.0331,-0.024,-0.0166,-0.0122,-0.0047,-0.0001,-0.0001,0.0018,0.0015,0.0023,-0.0093,-0.0117,0.0016,0.0016,0.0016,0.0016,0.0016,0.0016,-0.075,-0.0658,-0.0644,-0.0531,-0.0498,-0.0418,-0.0384,-0.0338,-0.0297,-0.0198,-0.0137,-0.011,-0.0061,0.0017,0.0086,0.0097,0.0125,0.0145,0.0155,0.0045,0.0031,0.0018,-0.0004,0.0151,0.0151,0.0266,0.0267,0.0267]}]]